Regional Weather Roundup
Issued by NWS

Home | Current Version | Previous Version | Graphics & Text | Print | Product List | Glossary On
Versions: 1 2 3 4 5 6 7 8 9 10 11 12 13 14 15 16 17 18 19 20 21 22 23 24 25 26 27 28
000
ASUS45 KBOU 270607
RWRCO

WEATHER ROUNDUP FOR COLORADO
NATIONAL WEATHER SERVICE DENVER/BOULDER CO
1200 AM MDT SAT AUG 27 2016

NOTE: "FAIR" INDICATES FEW OR NO CLOUDS BELOW 12000 FEET WITH NO
SIGNIFICANT WEATHER AND/OR OBSTRUCTIONS TO VISIBILITY.

COZ001>005-013-030-031-270700-
...NORTHWEST COLORADO...

CITY           SKY/WX    TMP DP  RH WIND       PRES   REMARKS
CRAIG          FAIR      54  43  66 SW7       30.22F
HAYDEN         FAIR      52  39  62 E7        30.24S
MEEKER         CLOUDY    53  45  74 E6        30.24S
MOUNT WERNER   NOT AVBL
STEAMBOAT SPGS FAIR      50  41  71 SE7       30.26S
WALDEN         FAIR      43  34  70 E8        30.30S
$$

COZ006>008-011-270700-
...WEST CENTRAL VALLEYS...

CITY           SKY/WX    TMP DP  RH WIND       PRES   REMARKS
GRAND JUNCTION FAIR      59  50  72 W6        30.16F
MONTROSE       MOCLDY    61  45  55 W8        30.23S
EAGLE          CLOUDY    57  45  62 W9G18     30.31R
RIFLE          MOCLDY    54  53  97 E9        30.28F
DELTA          NOT AVBL
NUCLA          FAIR     N/A N/A N/A E7        30.23S
$$

COZ017>023-064>068-270700-
...SOUTHWEST COLORADO...

CITY           SKY/WX    TMP DP  RH WIND       PRES   REMARKS
DURANGO        FAIR      54  45  71 N3        30.24S
CORTEZ         FAIR      57  51  80 NE6       30.20S
PAGOSA SPRINGS FAIR      47  46  94 CALM      30.31F
TELLURIDE      FAIR      47  44  90 E3        30.41F
WOLF CREEK PAS FAIR      37  36  93 SW15      30.56F
$$

COZ009-010-012-014-032>034-037-058>063-270700-
...CENTRAL COLORADO...

CITY           SKY/WX    TMP DP  RH WIND       PRES   REMARKS
ASPEN          CLOUDY    51  41  68 N12G24    30.37R
BUENA VISTA    FAIR      50  35  57 NW10      30.29F
COPPER MTN     FAIR      45  25  45 W14G22    30.52F
BERTHOUD PASS  FAIR      36  23  60 W13G24    30.52S
COTTONWOOD PAS FAIR      52  27  37 W6        30.39F
GUNNISON       FAIR      48  37  66 CALM      30.33S
KREMMLING      FAIR      46  41  81 CALM      30.31S
LEADVILLE      FAIR      39  30  70 NE6       30.40F
MONARCH PASS   FAIR      39  30  70 W16       30.62F
SALIDA         FAIR      55  38  52 W6        30.33F
SUNLIGHT       RAIN      39  37  93 NE7G22    30.54R VSB 1/4
WILKERSON PASS FAIR      41  34  75 SW5       30.50F
$$

COZ069>075-270700-
...SAN LUIS VALLEY/SANGRE DE CRISTO MOUNTAINS...

CITY           SKY/WX    TMP DP  RH WIND       PRES   REMARKS
ALAMOSA        FAIR      45  40  82 S5        30.28R
LA VETA PASS   FAIR      45  34  65 S8        30.42S
SAGUACHE       CLOUDY    55  37  50 N9        30.30F
$$

COZ035-036-038>040-270700-
...NORTHERN COLORADO FRONT RANGE...

CITY           SKY/WX    TMP DP  RH WIND       PRES   REMARKS
DENVER INTL AP FAIR      58  50  75 W6        30.12R
DMNS CITY PARK   N/A     59  50  71 N5        30.13S
AURORA         PTCLDY    58  49  73 W6        30.14R
FRONT RANGE AP NOT AVBL
ERIE MUNI ARPT FAIR      55  49  81 CALM      30.13S
BOULDER MUN AP FAIR      59  48  67 W5        30.14S
CENTENNIAL     FAIR      58  44  60 NW5       30.15R
BROOMFIELD     FAIR      59  48  67 NW12      30.15S
FORT COLLINS   FAIR      57  48  72 NE6       30.13F
LONGMONT       FAIR      57  48  73 CALM      30.14F
$$

COZ041-046-047-076>085-087-088-270700-
...PIKES PEAK/PALMER DIVIDE AND SOUTHERN FOOTHILLS...

CITY           SKY/WX    TMP DP  RH WIND       PRES   REMARKS
COLO. SPRINGS  MOCLDY    58  45  62 E5        30.19F
A. F. ACADEMY  FAIR      49  46  89 N7        30.20S
SCHRIEVER AFB  NOT AVBL
ELLICOTT       NOT AVBL
FALCON         FAIR      54  46  75 CALM      30.23S
FORT CARSON    FAIR      63  45  51 SW6       30.15F
LIMON          FAIR      48  48 100 CALM      30.15S
MONUMENT HILL  FAIR      50  45  81 S6        30.24S
TRINIDAD       FAIR      59  50  72 W13       30.15F
$$

COZ042>045-048>051-090-091-270700-
...NORTHEAST COLORADO...

CITY           SKY/WX    TMP DP  RH WIND       PRES   REMARKS
GREELEY ARPT   FAIR      52  48  87 N7        30.13S
AKRON          FAIR      55  50  83 S10       30.10F
BURLINGTON     FAIR      54  49  83 SE6       30.09F
WRAY           NOT AVBL
STERLING       FAIR      52  50  93 CALM      30.08S
HOLYOKE        FOG       59  55  88 SE3       30.08F VSB 1/4
FORT MORGAN    FAIR      51  48  91 CALM      30.11S
$$

COZ086-089-092>099-270700-
...SOUTHEAST COLORADO...

CITY           SKY/WX    TMP DP  RH WIND       PRES   REMARKS
PUEBLO         FAIR      63  47  55 CALM      30.09S
LA JUNTA       FAIR      63  54  72 E9        30.07S
LAMAR          FAIR      59  54  83 CALM      30.04F
SPRINGFIELD      N/A     60  57  89 S12       30.09S
$$




USA.gov is the U.S. government's official web portal to all federal, state and local government web resources and services.